[[{"header":{"parameterUnit":"m.s-1","parameterCategory":1,"la1":30.2991,"la2":30.254,"lo1":-89.0895,"lo2":-89.0444,"dy":0.0017,"dx":0.0017,"nx":28,"ny":28,"refTime":"2023-10-11T09:00:00:Z","depth":0,"parameterNumber":2,"parameterNumberName":"U-component_of_WINDS"},"data":[0,0,0,0,0,0,0,0,0,0,0,0,0,0,0,0,0,0,0,0,0,0,0,0,0,0,0,0,0,0,0,0,0,0,0,0,0,0,0,0,0,0,0,0,0,0,0,0,0,0,0,0,0,0,0,0,0,0,-2.3587,-2.3588,0,-2.3659,-2.366,-2.3661,-2.3642,-2.3641,-2.3639,-2.3638,-2.3713,-2.3716,-2.3719,0,0,0,0,0,0,0,0,0,0,0,0,0,-2.3431,-2.3433,-2.3587,-2.3588,-2.3588,-2.3659,-2.366,-2.3661,-2.3642,-2.364,-2.3639,-2.3637,-2.3711,-2.3715,-2.3719,0,0,0,0,0,0,0,0,0,0,0,0,0,-2.35,-2.3434,-2.3587,-2.3587,-2.3588,-2.3659,-2.366,-2.3662,-2.3643,-2.364,-2.3638,-2.3636,-2.371,-2.3715,-2.372,-2.3794,0,0,-2.3735,-2.3737,0,0,0,0,0,0,0,0,-2.3496,-2.3506,-2.3586,-2.3588,-2.3589,-2.3639,-2.3633,-2.3706,-2.3643,-2.3622,-2.3638,-2.3635,-2.369,-2.3697,-2.3715,-2.3798,-2.3801,-2.3736,-2.3739,-2.3741,-2.3742,0,0,0,0,0,0,0,-2.3492,-2.3503,-2.3615,-2.3588,-2.3589,-2.3584,-2.3592,-2.3647,-2.3667,-2.3624,-2.3622,-2.3631,-2.369,-2.371,-2.3717,-2.3802,-2.3736,-2.374,-2.3743,-2.3745,-2.3949,-2.3951,0,0,0,0,0,0,-2.3486,-2.3499,-2.3613,-2.3618,-2.3536,-2.3589,-2.3597,-2.3625,-2.3667,-2.3671,-2.3633,-2.363,-2.3703,-2.3711,-2.3719,-2.3808,-2.3741,-2.3746,-2.3748,-2.3946,-2.3949,-2.3952,0,0,0,0,0,0,-2.3483,-2.3496,-2.361,-2.3558,-2.3572,-2.3594,-2.3626,-2.3628,-2.3648,-2.3674,-2.3677,-2.365,-2.3701,-2.3712,-2.3775,-2.381,-2.3748,-2.3752,-2.3943,-2.3947,-2.395,-2.3987,0,0,0,0,0,0,-2.3478,-2.3495,-2.3524,-2.3559,-2.3575,-2.3666,-2.3628,-2.3631,-2.3657,-2.3653,-2.369,-2.3694,-2.37,-2.3768,-2.378,-2.3816,-2.3756,-2.394,-2.3945,-2.3949,-2.3983,-2.3992,-2.3999,0,0,0,0,0,-2.3473,-2.3532,-2.3526,-2.3539,-2.3611,-2.3668,-2.3677,-2.3683,-2.3659,-2.3688,-2.3705,-2.3693,-2.3805,-2.3775,-2.3789,-2.3826,-2.3938,-2.3944,-2.3949,-2.3979,-2.399,-2.3999,0,0,0,0,0,0,-2.3501,-2.3536,-2.353,-2.3602,-2.3632,-2.3664,-2.3701,-2.3694,-2.3731,-2.3727,-2.3732,-2.3741,-2.3805,-2.3822,-2.3788,-2.39,-2.3868,-2.3876,-2.3886,-2.3897,-2.3905,-2.3899,-2.376,0,0,0,0,0,-2.3515,-2.3558,-2.3587,-2.3648,-2.3663,-2.368,-2.3704,-2.3706,-2.3737,-2.375,-2.3771,-2.3802,-2.3844,-2.3871,-2.3911,-2.3985,-2.3993,-2.4018,-2.4026,-2.4032,-2.404,-2.4079,-2.409,-2.3969,-2.3969,-2.3969,0,0,-2.3546,-2.3571,-2.3598,-2.3654,-2.3677,-2.3721,-2.369,-2.3739,-2.3771,-2.3757,-2.3818,-2.3835,-2.3869,-2.3938,-2.397,-2.3954,-2.4075,-2.4039,-2.4044,-2.4048,-2.4086,-2.4097,-2.4107,-2.3973,-2.3972,-2.3972,0,0,-2.3624,-2.3647,-2.37,-2.3724,-2.376,-2.377,-2.3783,-2.3816,-2.3826,-2.3888,-2.3878,-2.3916,-2.3989,-2.4013,-2.4036,-2.4122,-2.4112,-2.4135,-2.4177,-2.4215,-2.4225,-2.4233,-2.4263,-2.4274,-2.4142,-2.4142,-2.4142,0,-2.3657,-2.3723,-2.3728,-2.3777,-2.3802,-2.3791,-2.3844,-2.3867,-2.3914,-2.3931,-2.3913,-2.4003,-2.4026,-2.4099,-2.412,-2.4139,-2.4153,-2.4131,-2.4223,-2.4231,-2.4239,-2.4268,-2.4279,-2.4144,-2.4144,-2.4144,-2.4144,0,-2.3762,-2.3808,-2.3846,-2.3892,-2.3921,-2.3971,-2.3983,-2.4012,-2.4011,-2.4023,-2.4085,-2.4112,-2.4156,-2.4174,-2.4174,-2.4248,-2.4237,-2.4221,-2.4189,-2.4253,-2.428,-2.4291,-2.4148,-2.4147,-2.4146,-2.4146,0,0,-2.3861,-2.3907,-2.3921,-2.3941,-2.3979,-2.4014,-2.4064,-2.4107,-2.4132,-2.4164,-2.4206,-2.4267,-2.4252,-2.4277,-2.4279,-2.4313,-2.4378,-2.4292,-2.4293,-2.4307,-2.4461,-2.4472,-2.4485,-2.4372,-2.4374,-2.4376,-2.4457,0,-2.3941,-2.4029,-2.4034,-2.4113,-2.4155,-2.4145,-2.4188,-2.4216,-2.4229,-2.4266,-2.428,-2.4322,-2.43,-2.4315,-2.4348,-2.4363,-2.4409,-2.4358,-2.4411,-2.4412,-2.4402,-2.4499,-2.4512,-2.4587,-2.4468,-2.447,-2.4471,0,-2.4047,-2.4082,-2.4166,-2.4197,-2.4215,-2.4254,-2.4293,-2.4329,-2.436,-2.4367,-2.4394,-2.4392,-2.4442,-2.4408,-2.4478,-2.4443,-2.4465,-2.4476,-2.4479,-2.4483,-2.4445,-2.4506,-2.4611,-2.4622,-2.4488,-2.4487,-2.4485,0,-2.4109,-2.4178,-2.4236,-2.4254,-2.4292,-2.4319,-2.4336,-2.4365,-2.4391,-2.4425,-2.4442,-2.4482,-2.4504,-2.4535,-2.4543,-2.4518,-2.4612,-2.4579,-2.4619,-2.4618,-2.4639,-2.4637,-2.4748,-2.4654,-2.4654,-2.4653,-2.4653,0,-2.4199,-2.425,-2.4264,-2.43,-2.4357,-2.4362,-2.4418,-2.4434,-2.4459,-2.4498,-2.4492,-2.4528,-2.4536,-2.4574,-2.4581,-2.4637,-2.4647,-2.4653,-2.4654,-2.4654,-2.4653,-2.4668,-2.4663,-2.4656,-2.4656,-2.4655,-2.4655,0,-2.4278,-2.429,-2.4352,-2.4383,-2.4392,-2.4432,-2.4458,-2.4493,-2.4504,-2.4553,-2.4564,-2.4582,-2.4626,-2.4637,-2.469,-2.4694,-2.476,-2.4757,-2.475,-2.4749,-2.4788,-2.4784,-2.4912,-2.4929,-2.4824,-2.4825,-2.4825,0,-2.4334,-2.4373,-2.4407,-2.4432,-2.4451,-2.4491,-2.4517,-2.4523,-2.455,-2.4588,-2.4618,-2.4661,-2.4696,-2.4766,-2.4784,-2.4824,-2.4821,-2.4863,-2.4827,-2.4825,-2.4821,-2.4818,-2.4822,-2.487,-2.4871,-2.4872,-2.4873,0,-2.4431,-2.4435,-2.4472,-2.4512,-2.4542,-2.4574,-2.4603,-2.4624,-2.4635,-2.4665,-2.471,-2.4737,-2.479,-2.4833,-2.4873,-2.489,-2.4883,-2.4884,-2.4895,-2.4894,-2.4888,-2.4891,-2.4768,-2.4881,-2.488,-2.4879,-2.4879,-2.4879,-2.45,-2.4534,-2.4563,-2.4605,-2.4628,-2.4655,-2.4689,-2.4704,-2.4741,-2.4785,-2.4787,-2.4835,-2.4864,-2.4917,-2.4937,-2.4975,-2.4962,-2.4978,-2.4982,-2.4986,-2.4989,-2.4883,-2.4982,-2.4982,-2.4982,-2.4981,-2.4981,0,-2.4597,-2.4615,-2.4653,-2.4694,-2.4727,-2.4717,-2.4749,-2.4777,-2.482,-2.4848,-2.4882,-2.4933,-2.4974,-2.4994,-2.5035,-2.5061,-2.5059,-2.5072,-2.507,-2.5073,-2.4998,-2.4984,-2.5073,-2.5073,-2.5073,-2.5073,-2.5073,-2.5073,-2.4651,-2.4707,-2.4714,-2.4782,-2.4799,-2.4847,-2.4866,-2.4891,-2.4913,-2.497,-2.5004,-2.5017,-2.5042,-2.5084,-2.5121,-2.5126,-2.5141,-2.5156,-2.5159,-2.5088,-2.5079,-2.507,-2.5057,-2.5159,-2.5159,-2.5231,-2.5231,-2.5232]},{"header":{"parameterUnit":"m.s-1","parameterCategory":1,"la1":30.2991,"la2":30.254,"lo1":-89.0895,"lo2":-89.0444,"dy":0.0017,"dx":0.0017,"nx":28,"ny":28,"refTime":"2023-10-11T09:00:00:Z","depth":0,"parameterNumber":3,"parameterNumberName":"V-component_of_WINDS"},"data":[0,0,0,0,0,0,0,0,0,0,0,0,0,0,0,0,0,0,0,0,0,0,0,0,0,0,0,0,0,0,0,0,0,0,0,0,0,0,0,0,0,0,0,0,0,0,0,0,0,0,0,0,0,0,0,0,0,0,-2.9589,-2.9589,0,-2.9587,-2.9587,-2.9587,-2.9549,-2.9548,-2.9548,-2.9547,-2.9544,-2.9545,-2.9546,0,0,0,0,0,0,0,0,0,0,0,0,0,-2.9561,-2.9562,-2.9589,-2.9589,-2.9589,-2.9587,-2.9587,-2.9587,-2.955,-2.9548,-2.9547,-2.9546,-2.9544,-2.9545,-2.9546,0,0,0,0,0,0,0,0,0,0,0,0,0,-2.9568,-2.9562,-2.9589,-2.957,-2.9569,-2.9587,-2.9587,-2.9587,-2.955,-2.9548,-2.9547,-2.9546,-2.9543,-2.9545,-2.9546,-2.9582,0,0,-2.955,-2.955,0,0,0,0,0,0,0,0,-2.9567,-2.9569,-2.9573,-2.9572,-2.957,-2.9567,-2.9576,-2.9585,-2.955,-2.9557,-2.9547,-2.9545,-2.9553,-2.9553,-2.9556,-2.9582,-2.9582,-2.955,-2.955,-2.9551,-2.9551,0,0,0,0,0,0,0,-2.9567,-2.9569,-2.9588,-2.9573,-2.9571,-2.9562,-2.9561,-2.9577,-2.9563,-2.9556,-2.9554,-2.9554,-2.9552,-2.9555,-2.9555,-2.9581,-2.955,-2.9551,-2.9551,-2.9552,-2.9635,-2.9637,0,0,0,0,0,0,-2.9569,-2.9569,-2.9588,-2.9588,-2.9565,-2.9564,-2.9563,-2.9569,-2.9563,-2.956,-2.9555,-2.9552,-2.9553,-2.9554,-2.9555,-2.9596,-2.9551,-2.9552,-2.9553,-2.9634,-2.9636,-2.9637,0,0,0,0,0,0,-2.9569,-2.9571,-2.9589,-2.9578,-2.9579,-2.9566,-2.9573,-2.957,-2.9573,-2.9562,-2.9559,-2.9561,-2.9552,-2.9553,-2.9575,-2.9595,-2.9553,-2.9554,-2.9632,-2.9634,-2.9636,-2.9678,0,0,0,0,0,0,-2.9568,-2.9571,-2.9585,-2.9578,-2.958,-2.9609,-2.9574,-2.9571,-2.9575,-2.9571,-2.9566,-2.9564,-2.9551,-2.9573,-2.9576,-2.9596,-2.9555,-2.963,-2.9633,-2.9636,-2.9675,-2.9681,-2.9687,0,0,0,0,0,-2.9567,-2.9597,-2.9586,-2.9589,-2.9597,-2.961,-2.9611,-2.9595,-2.9577,-2.9591,-2.9583,-2.9564,-2.9593,-2.9576,-2.9579,-2.9599,-2.9629,-2.9632,-2.9635,-2.9672,-2.968,-2.9687,0,0,0,0,0,0,-2.9607,-2.9596,-2.9584,-2.9612,-2.9612,-2.9604,-2.962,-2.9605,-2.961,-2.9606,-2.9587,-2.9586,-2.961,-2.9607,-2.9589,-2.9633,-2.9607,-2.9612,-2.9634,-2.9642,-2.9648,-2.9648,-2.9556,0,0,0,0,0,-2.962,-2.9631,-2.9621,-2.9647,-2.9648,-2.9634,-2.9639,-2.9627,-2.9627,-2.9627,-2.9621,-2.9621,-2.9629,-2.9635,-2.9643,-2.9674,-2.9672,-2.969,-2.9696,-2.9701,-2.9704,-2.972,-2.9727,-2.9648,-2.9648,-2.9648,0,0,-2.9645,-2.964,-2.9649,-2.9655,-2.9654,-2.9666,-2.9635,-2.9649,-2.9658,-2.9629,-2.9648,-2.9644,-2.9643,-2.9669,-2.968,-2.9667,-2.9726,-2.9705,-2.9709,-2.971,-2.9724,-2.9731,-2.9738,-2.965,-2.965,-2.965,0,0,-2.9697,-2.9695,-2.9716,-2.9715,-2.9713,-2.9704,-2.9709,-2.9703,-2.9698,-2.9718,-2.9696,-2.9706,-2.9722,-2.9721,-2.9723,-2.9774,-2.9757,-2.9777,-2.9809,-2.9824,-2.983,-2.9836,-2.9853,-2.9859,-2.9781,-2.9781,-2.9781,0,-2.9729,-2.9746,-2.9729,-2.9745,-2.9748,-2.9722,-2.9742,-2.9742,-2.9743,-2.9746,-2.9731,-2.9749,-2.9747,-2.9772,-2.9784,-2.9787,-2.9792,-2.9777,-2.9831,-2.9836,-2.9841,-2.9857,-2.9864,-2.9783,-2.9783,-2.9783,-2.9783,0,-2.9785,-2.9797,-2.9814,-2.9815,-2.982,-2.9839,-2.9824,-2.9831,-2.9818,-2.981,-2.983,-2.9826,-2.9831,-2.9836,-2.9825,-2.986,-2.9851,-2.9834,-2.9808,-2.9851,-2.9866,-2.9872,-2.9787,-2.9786,-2.9785,-2.9785,0,0,-2.9862,-2.9853,-2.9859,-2.9859,-2.9854,-2.9863,-2.988,-2.9885,-2.9891,-2.9893,-2.9906,-2.9919,-2.9903,-2.9905,-2.9893,-2.9906,-2.9945,-2.9887,-2.9887,-2.9897,-2.9983,-2.9995,-3.0003,-2.9934,-2.9935,-2.9936,-2.9983,0,-2.9912,-2.9939,-2.9924,-2.9954,-2.9964,-2.9939,-2.9954,-2.9952,-2.9945,-2.9953,-2.9945,-2.9955,-2.9933,-2.9934,-2.9946,-2.9938,-2.9962,-2.9935,-2.9945,-2.9946,-2.9946,-3.0011,-3.0024,-3.0068,-2.9988,-2.9989,-2.999,0,-2.9973,-2.9976,-3.0007,-2.9999,-3.0003,-3.0016,-3.0019,-3.0027,-3.0025,-3.0019,-3.0021,-3.0005,-3.0021,-2.9995,-3.0016,-2.9997,-3.0001,-2.9998,-2.9999,-2.9999,-2.997,-3.0011,-3.0082,-3.0088,-2.9999,-2.9999,-2.9998,0,-3.0025,-3.0037,-3.0056,-3.0057,-3.0049,-3.0059,-3.0056,-3.0052,-3.0056,-3.0059,-3.0061,-3.0065,-3.0068,-3.0072,-3.0057,-3.004,-3.008,-3.0053,-3.0074,-3.0075,-3.0083,-3.0083,-3.0154,-3.0087,-3.0087,-3.0087,-3.0087,0,-3.0081,-3.01,-3.0079,-3.0092,-3.0112,-3.0094,-3.0115,-3.011,-3.0107,-3.0117,-3.0096,-3.0106,-3.0087,-3.0095,-3.0084,-3.0102,-3.0104,-3.0099,-3.0095,-3.01,-3.0101,-3.0102,-3.0098,-3.0089,-3.0088,-3.0088,-3.0088,0,-3.0142,-3.0129,-3.0149,-3.0139,-3.0137,-3.0153,-3.0145,-3.0155,-3.0146,-3.0159,-3.0162,-3.0148,-3.0156,-3.0142,-3.0149,-3.0142,-3.0167,-3.0159,-3.0167,-3.0165,-3.0186,-3.0184,-3.0261,-3.0269,-3.0197,-3.0198,-3.0199,0,-3.0179,-3.0193,-3.0185,-3.019,-3.0188,-3.0197,-3.02,-3.0183,-3.0187,-3.0185,-3.0196,-3.0202,-3.0206,-3.0221,-3.0211,-3.0216,-3.0208,-3.0235,-3.0209,-3.0213,-3.0207,-3.0206,-3.0207,-3.024,-3.0241,-3.0241,-3.0242,0,-3.0244,-3.0236,-3.0242,-3.0245,-3.025,-3.0252,-3.0252,-3.0258,-3.0239,-3.0245,-3.0253,-3.0256,-3.0263,-3.0269,-3.0272,-3.0269,-3.0252,-3.025,-3.0255,-3.026,-3.0263,-3.0261,-3.0181,-3.0248,-3.0248,-3.0247,-3.0247,-3.0247,-3.0293,-3.0304,-3.03,-3.0306,-3.0305,-3.0305,-3.0314,-3.0306,-3.0313,-3.0316,-3.0306,-3.0316,-3.0313,-3.0314,-3.0313,-3.032,-3.0309,-3.0316,-3.0318,-3.032,-3.0323,-3.0263,-3.0321,-3.0321,-3.0321,-3.032,-3.032,0,-3.0356,-3.0352,-3.0358,-3.0359,-3.0364,-3.0348,-3.0347,-3.0353,-3.0362,-3.036,-3.0364,-3.0373,-3.0379,-3.037,-3.0374,-3.0382,-3.0375,-3.0384,-3.0383,-3.0382,-3.0333,-3.0328,-3.039,-3.039,-3.039,-3.039,-3.039,-3.039,-3.039,-3.0407,-3.0399,-3.0415,-3.0411,-3.042,-3.0421,-3.0421,-3.0419,-3.043,-3.0435,-3.0429,-3.0424,-3.0427,-3.0432,-3.0429,-3.0431,-3.0443,-3.0438,-3.0392,-3.0386,-3.0379,-3.0374,-3.0444,-3.0444,-3.0485,-3.0486,-3.0486]}]]